Time,TemperatureF,DewpointF,PressureIn,WindDirection,WindDirectionDegrees,WindSpeedMPH,WindSpeedGustMPH,Humidity,HourlyPrecipIn,Conditions,Clouds,dailyrainin,SoftwareType,DateUTC
2013-01-05 00:00:00,25.4,19.8,30.08,ENE,73,3.0,7.0,79,0.00,,,0.00,VWS V14.01,2013-01-05 06:00:00,
2013-01-05 00:03:00,25.3,19.7,30.08,ENE,73,1.0,7.0,79,0.00,,,0.00,VWS V14.01,2013-01-05 06:03:00,
2013-01-05 00:05:00,25.3,19.7,30.08,ENE,73,3.0,7.0,79,0.00,,,0.00,VWS V14.01,2013-01-05 06:05:00,
2013-01-05 00:08:00,25.3,19.7,30.08,NE,47,0.0,6.0,79,0.00,,,0.00,VWS V14.01,2013-01-05 06:08:00,
2013-01-05 00:10:00,25.3,20.0,30.08,ENE,71,5.0,6.0,80,0.00,,,0.00,VWS V14.01,2013-01-05 06:10:00,
2013-01-05 00:14:00,25.1,19.8,30.08,ENE,78,4.0,7.0,80,0.00,,,0.00,VWS V14.01,2013-01-05 06:14:00,
2013-01-05 00:15:00,25.1,19.8,30.08,ENE,78,5.0,7.0,80,0.00,,,0.00,VWS V14.01,2013-01-05 06:15:00,
2013-01-05 00:19:00,25.1,20.1,30.08,East,80,5.0,6.0,81,0.00,,,0.00,VWS V14.01,2013-01-05 06:19:00,
2013-01-05 00:20:00,25.1,20.1,30.08,ENE,78,4.0,7.0,81,0.00,,,0.00,VWS V14.01,2013-01-05 06:20:00,
2013-01-05 00:24:00,25.1,20.1,30.08,ENE,75,5.0,7.0,81,0.00,,,0.00,VWS V14.01,2013-01-05 06:24:00,
2013-01-05 00:25:00,25.1,20.4,30.08,ENE,76,5.0,7.0,82,0.00,,,0.00,VWS V14.01,2013-01-05 06:25:00,
2013-01-05 00:29:00,25.1,20.4,30.08,ENE,75,1.0,7.0,82,0.00,,,0.00,VWS V14.01,2013-01-05 06:29:00,
2013-01-05 00:30:00,25.1,20.4,30.08,ENE,75,5.0,7.0,82,0.00,,,0.00,VWS V14.01,2013-01-05 06:30:00,
2013-01-05 00:34:00,25.3,20.3,30.08,ENE,73,6.0,8.0,81,0.00,,,0.00,VWS V14.01,2013-01-05 06:34:00,
2013-01-05 00:35:00,25.3,20.3,30.08,ENE,76,6.0,8.0,81,0.00,,,0.00,VWS V14.01,2013-01-05 06:35:00,
2013-01-05 00:39:00,25.4,20.7,30.08,ENE,76,6.0,7.0,82,0.00,,,0.00,VWS V14.01,2013-01-05 06:39:00,
2013-01-05 00:40:00,25.4,20.7,30.08,ENE,76,6.0,7.0,82,0.00,,,0.00,VWS V14.01,2013-01-05 06:40:00,
2013-01-05 00:44:00,25.6,20.3,30.08,East,86,4.0,9.0,80,0.00,,,0.00,VWS V14.01,2013-01-05 06:44:00,
2013-01-05 00:45:00,25.6,20.3,30.08,East,86,4.0,9.0,80,0.00,,,0.00,VWS V14.01,2013-01-05 06:45:00,
2013-01-05 00:49:00,25.6,20.0,30.08,East,93,7.0,8.0,79,0.00,,,0.00,VWS V14.01,2013-01-05 06:49:00,
2013-01-05 00:50:00,25.6,20.0,30.08,East,93,7.0,8.0,79,0.00,,,0.00,VWS V14.01,2013-01-05 06:50:00,
2013-01-05 00:54:00,25.4,19.5,30.08,East,99,5.0,8.0,78,0.00,,,0.00,VWS V14.01,2013-01-05 06:54:00,
2013-01-05 00:55:00,25.4,19.5,30.08,East,99,5.0,8.0,78,0.00,,,0.00,VWS V14.01,2013-01-05 06:55:00,
2013-01-05 00:59:00,25.6,19.7,30.08,East,90,4.0,4.0,78,0.00,,,0.00,VWS V14.01,2013-01-05 06:59:00,
2013-01-05 01:00:00,25.6,19.7,30.08,East,88,3.0,7.0,78,0.00,,,0.00,VWS V14.01,2013-01-05 07:00:00,
2013-01-05 01:04:00,25.6,19.7,30.08,East,93,5.0,7.0,78,0.00,,,0.00,VWS V14.01,2013-01-05 07:04:00,
2013-01-05 01:05:00,25.6,19.7,30.08,ESE,116,7.0,8.0,78,0.00,,,0.00,VWS V14.01,2013-01-05 07:05:00,
2013-01-05 01:09:00,25.6,19.4,30.08,East,96,5.0,6.0,77,0.00,,,0.00,VWS V14.01,2013-01-05 07:09:00,
2013-01-05 01:10:00,25.6,19.4,30.08,East,96,6.0,8.0,77,0.00,,,0.00,VWS V14.01,2013-01-05 07:10:00,
2013-01-05 01:14:00,25.6,19.4,30.08,East,96,5.0,5.0,77,0.00,,,0.00,VWS V14.01,2013-01-05 07:14:00,
2013-01-05 01:15:00,25.6,19.4,30.08,East,96,5.0,8.0,77,0.00,,,0.00,VWS V14.01,2013-01-05 07:15:00,
2013-01-05 01:19:00,25.7,19.8,30.08,ENE,76,6.0,7.0,78,0.00,,,0.00,VWS V14.01,2013-01-05 07:19:00,
2013-01-05 01:20:00,25.7,19.8,30.08,East,79,5.0,8.0,78,0.00,,,0.00,VWS V14.01,2013-01-05 07:20:00,
2013-01-05 01:24:00,25.7,19.8,30.08,East,90,5.0,5.0,78,0.00,,,0.00,VWS V14.01,2013-01-05 07:24:00,
2013-01-05 01:25:00,25.7,19.8,30.08,East,88,3.0,8.0,78,0.00,,,0.00,VWS V14.01,2013-01-05 07:25:00,
2013-01-05 01:29:00,25.7,19.8,30.08,East,97,6.0,7.0,78,0.00,,,0.00,VWS V14.01,2013-01-05 07:29:00,
2013-01-05 01:30:00,25.7,19.8,30.08,East,99,7.0,8.0,78,0.00,,,0.00,VWS V14.01,2013-01-05 07:30:00,
2013-01-05 01:35:00,25.7,19.8,30.08,ESE,102,7.0,10.0,78,0.00,,,0.00,VWS V14.01,2013-01-05 07:35:00,
2013-01-05 01:40:00,25.7,20.1,30.08,East,93,2.0,2.0,79,0.00,,,0.00,VWS V14.01,2013-01-05 07:40:00,
2013-01-05 01:45:00,25.1,19.8,30.08,ENE,66,2.0,4.0,80,0.00,,,0.00,VWS V14.01,2013-01-05 07:45:00,
2013-01-05 01:50:00,24.8,19.5,30.08,ENE,66,0.0,5.0,80,0.00,,,0.00,VWS V14.01,2013-01-05 07:50:00,
2013-01-05 01:55:00,24.7,19.4,30.08,East,83,0.0,6.0,80,0.00,,,0.00,VWS V14.01,2013-01-05 07:55:00,
2013-01-05 02:00:00,24.4,19.1,30.08,East,82,3.0,3.0,80,0.00,,,0.00,VWS V14.01,2013-01-05 08:00:00,
2013-01-05 02:05:00,24.4,19.4,30.08,East,88,6.0,7.0,81,0.00,,,0.00,VWS V14.01,2013-01-05 08:05:00,
2013-01-05 02:10:00,24.4,19.7,30.08,East,79,3.0,5.0,82,0.00,,,0.00,VWS V14.01,2013-01-05 08:10:00,
2013-01-05 02:15:00,24.5,19.8,30.08,ENE,72,6.0,8.0,82,0.00,,,0.00,VWS V14.01,2013-01-05 08:15:00,
2013-01-05 02:20:00,24.5,19.8,30.08,ENE,75,6.0,6.0,82,0.00,,,0.00,VWS V14.01,2013-01-05 08:20:00,
2013-01-05 02:25:00,24.5,20.1,30.08,ENE,72,5.0,7.0,83,0.00,,,0.00,VWS V14.01,2013-01-05 08:25:00,
2013-01-05 02:30:00,24.7,20.6,30.08,ENE,75,3.0,7.0,84,0.00,,,0.00,VWS V14.01,2013-01-05 08:30:00,
2013-01-05 02:35:00,24.8,20.4,30.08,East,80,6.0,7.0,83,0.00,,,0.00,VWS V14.01,2013-01-05 08:35:00,
2013-01-05 02:40:00,24.8,20.7,30.08,East,79,1.0,7.0,84,0.00,,,0.00,VWS V14.01,2013-01-05 08:40:00,
2013-01-05 02:45:00,24.8,20.7,30.07,East,99,6.0,7.0,84,0.00,,,0.00,VWS V14.01,2013-01-05 08:45:00,
2013-01-05 02:50:00,24.8,20.7,30.07,SE,144,5.0,6.0,84,0.00,,,0.00,VWS V14.01,2013-01-05 08:50:00,
2013-01-05 02:55:00,24.5,20.4,30.07,SE,140,4.0,5.0,84,0.00,,,0.00,VWS V14.01,2013-01-05 08:55:00,
2013-01-05 03:00:00,24.2,20.1,30.06,SSE,157,2.0,5.0,84,0.00,,,0.00,VWS V14.01,2013-01-05 09:00:00,
2013-01-05 03:05:00,23.6,19.2,30.06,SSE,151,0.0,0.0,83,0.00,,,0.00,VWS V14.01,2013-01-05 09:05:00,
2013-01-05 03:10:00,21.9,17.0,30.06,SSW,200,0.0,0.0,81,0.00,,,0.00,VWS V14.01,2013-01-05 09:10:00,
2013-01-05 03:15:00,20.5,16.2,30.07,SSE,148,0.0,0.0,83,0.00,,,0.00,VWS V14.01,2013-01-05 09:15:00,
2013-01-05 03:20:00,19.7,15.4,30.07,South,182,2.0,3.0,83,0.00,,,0.00,VWS V14.01,2013-01-05 09:20:00,
2013-01-05 03:21:00,19.4,15.4,30.07,SSW,195,2.0,4.0,84,0.00,,,0.00,VWS V14.01,2013-01-05 09:21:00,
2013-01-05 03:25:00,19.1,15.3,30.07,SSW,205,3.0,5.0,85,0.00,,,0.00,VWS V14.01,2013-01-05 09:25:00,
2013-01-05 03:26:00,18.9,15.4,30.07,SSW,205,3.0,3.0,86,0.00,,,0.00,VWS V14.01,2013-01-05 09:26:00,
2013-01-05 03:30:00,19.1,15.6,30.07,SSW,205,2.0,3.0,86,0.00,,,0.00,VWS V14.01,2013-01-05 09:30:00,
2013-01-05 03:31:00,19.1,15.6,30.07,SSW,208,0.0,2.0,86,0.00,,,0.00,VWS V14.01,2013-01-05 09:31:00,
2013-01-05 03:35:00,19.1,15.9,30.07,SSW,208,0.0,2.0,87,0.00,,,0.00,VWS V14.01,2013-01-05 09:35:00,
2013-01-05 03:36:00,19.2,16.2,30.07,SSW,208,0.0,0.0,88,0.00,,,0.00,VWS V14.01,2013-01-05 09:36:00,
2013-01-05 03:40:00,19.9,16.9,30.07,SSW,206,0.0,0.0,88,0.00,,,0.00,VWS V14.01,2013-01-05 09:40:00,
2013-01-05 03:41:00,19.7,16.5,30.07,SSW,206,0.0,0.0,87,0.00,,,0.00,VWS V14.01,2013-01-05 09:41:00,
2013-01-05 03:45:00,19.7,16.5,30.06,SSW,205,0.0,0.0,87,0.00,,,0.00,VWS V14.01,2013-01-05 09:45:00,
2013-01-05 03:46:00,19.9,16.9,30.06,SSW,205,0.0,0.0,88,0.00,,,0.00,VWS V14.01,2013-01-05 09:46:00,
2013-01-05 03:50:00,19.7,16.5,30.06,SSW,205,0.0,0.0,87,0.00,,,0.00,VWS V14.01,2013-01-05 09:50:00,
2013-01-05 03:51:00,19.5,16.3,30.06,SSW,205,0.0,0.0,87,0.00,,,0.00,VWS V14.01,2013-01-05 09:51:00,
2013-01-05 03:55:00,19.1,15.9,30.06,SSW,208,0.0,0.0,87,0.00,,,0.00,VWS V14.01,2013-01-05 09:55:00,
2013-01-05 03:56:00,18.6,15.1,30.06,SSW,206,0.0,0.0,86,0.00,,,0.00,VWS V14.01,2013-01-05 09:56:00,
2013-01-05 04:00:00,17.8,14.3,30.06,SSW,208,0.0,0.0,86,0.00,,,0.00,VWS V14.01,2013-01-05 10:00:00,
2013-01-05 04:01:00,17.7,14.5,30.06,SSW,208,0.0,0.0,87,0.00,,,0.00,VWS V14.01,2013-01-05 10:01:00,
2013-01-05 04:05:00,17.3,14.4,30.06,SSW,208,0.0,0.0,88,0.00,,,0.00,VWS V14.01,2013-01-05 10:05:00,
2013-01-05 04:06:00,17.3,14.4,30.06,SW,215,0.0,0.0,88,0.00,,,0.00,VWS V14.01,2013-01-05 10:06:00,
2013-01-05 04:10:00,18.1,15.4,30.06,SSW,208,0.0,0.0,89,0.00,,,0.00,VWS V14.01,2013-01-05 10:10:00,
2013-01-05 04:11:00,18.6,16.2,30.06,SSW,206,0.0,0.0,90,0.00,,,0.00,VWS V14.01,2013-01-05 10:11:00,
2013-01-05 04:15:00,19.1,16.7,30.05,SSW,205,0.0,0.0,90,0.00,,,0.00,VWS V14.01,2013-01-05 10:15:00,
2013-01-05 04:16:00,19.2,16.8,30.05,SSW,203,0.0,0.0,90,0.00,,,0.00,VWS V14.01,2013-01-05 10:16:00,
2013-01-05 04:20:00,19.4,17.0,30.05,SSW,203,0.0,0.0,90,0.00,,,0.00,VWS V14.01,2013-01-05 10:20:00,
2013-01-05 04:21:00,19.4,17.0,30.05,SSW,202,0.0,0.0,90,0.00,,,0.00,VWS V14.01,2013-01-05 10:21:00,
2013-01-05 04:25:00,19.1,16.4,30.05,SSW,203,0.0,0.0,89,0.00,,,0.00,VWS V14.01,2013-01-05 10:25:00,
2013-01-05 04:26:00,18.9,16.2,30.05,SSW,203,0.0,0.0,89,0.00,,,0.00,VWS V14.01,2013-01-05 10:26:00,
2013-01-05 04:30:00,18.4,15.4,30.05,SSW,203,0.0,0.0,88,0.00,,,0.00,VWS V14.01,2013-01-05 10:30:00,
2013-01-05 04:31:00,18.1,15.1,30.05,SSW,205,0.0,0.0,88,0.00,,,0.00,VWS V14.01,2013-01-05 10:31:00,
2013-01-05 04:35:00,17.8,14.9,30.05,SSW,206,0.0,0.0,88,0.00,,,0.00,VWS V14.01,2013-01-05 10:35:00,
2013-01-05 04:36:00,17.5,14.6,30.05,SSW,210,0.0,0.0,88,0.00,,,0.00,VWS V14.01,2013-01-05 10:36:00,
2013-01-05 04:40:00,17.2,14.3,30.05,SSW,209,0.0,0.0,88,0.00,,,0.00,VWS V14.01,2013-01-05 10:40:00,
2013-01-05 04:41:00,16.7,13.5,30.05,SSW,208,0.0,0.0,87,0.00,,,0.00,VWS V14.01,2013-01-05 10:41:00,
2013-01-05 04:45:00,16.4,13.5,30.04,SSW,210,0.0,0.0,88,0.00,,,0.00,VWS V14.01,2013-01-05 10:45:00,
2013-01-05 04:46:00,16.2,13.3,30.04,SSW,212,0.0,0.0,88,0.00,,,0.00,VWS V14.01,2013-01-05 10:46:00,
2013-01-05 04:50:00,16.2,13.5,30.04,SSW,213,0.0,0.0,89,0.00,,,0.00,VWS V14.01,2013-01-05 10:50:00,
2013-01-05 04:51:00,16.1,13.4,30.04,SW,217,5.0,5.0,89,0.00,,,0.00,VWS V14.01,2013-01-05 10:51:00,
2013-01-05 04:55:00,16.1,13.4,30.04,SSW,212,5.0,6.0,89,0.00,,,0.00,VWS V14.01,2013-01-05 10:55:00,
2013-01-05 04:56:00,15.9,13.2,30.04,SSW,210,5.0,6.0,89,0.00,,,0.00,VWS V14.01,2013-01-05 10:56:00,
2013-01-05 05:00:00,15.7,13.0,30.03,SSW,210,6.0,6.0,89,0.00,,,0.00,VWS V14.01,2013-01-05 11:00:00,
2013-01-05 05:02:00,15.4,12.7,30.03,SSW,209,5.0,6.0,89,0.00,,,0.00,VWS V14.01,2013-01-05 11:02:00,
2013-01-05 05:05:00,15.4,12.7,30.03,SSW,205,3.0,6.0,89,0.00,,,0.00,VWS V14.01,2013-01-05 11:05:00,
2013-01-05 05:07:00,15.4,13.0,30.03,SSW,205,3.0,5.0,90,0.00,,,0.00,VWS V14.01,2013-01-05 11:07:00,
2013-01-05 05:10:00,15.4,13.0,30.03,SSW,203,3.0,5.0,90,0.00,,,0.00,VWS V14.01,2013-01-05 11:10:00,
2013-01-05 05:12:00,15.6,13.4,30.03,SSW,203,3.0,5.0,91,0.00,,,0.00,VWS V14.01,2013-01-05 11:12:00,
2013-01-05 05:15:00,15.6,13.2,30.04,SSW,205,2.0,5.0,90,0.00,,,0.00,VWS V14.01,2013-01-05 11:15:00,
2013-01-05 05:17:00,15.6,13.2,30.04,SSW,200,3.0,4.0,90,0.00,,,0.00,VWS V14.01,2013-01-05 11:17:00,
2013-01-05 05:20:00,15.6,13.4,30.04,SSW,200,2.0,4.0,91,0.00,,,0.00,VWS V14.01,2013-01-05 11:20:00,
2013-01-05 05:22:00,15.6,13.4,30.04,SSW,202,2.0,3.0,91,0.00,,,0.00,VWS V14.01,2013-01-05 11:22:00,
2013-01-05 05:25:00,15.4,13.2,30.04,SSW,200,3.0,3.0,91,0.00,,,0.00,VWS V14.01,2013-01-05 11:25:00,
2013-01-05 05:27:00,15.4,13.2,30.04,SSW,200,2.0,3.0,91,0.00,,,0.00,VWS V14.01,2013-01-05 11:27:00,
2013-01-05 05:30:00,15.4,13.2,30.04,SSW,200,0.0,3.0,91,0.00,,,0.00,VWS V14.01,2013-01-05 11:30:00,
2013-01-05 05:32:00,15.2,12.8,30.04,SSW,200,0.0,0.0,90,0.00,,,0.00,VWS V14.01,2013-01-05 11:32:00,
2013-01-05 05:35:00,15.1,12.9,30.04,SSW,202,0.0,0.0,91,0.00,,,0.00,VWS V14.01,2013-01-05 11:35:00,
2013-01-05 05:37:00,14.9,12.5,30.04,SSW,200,0.0,0.0,90,0.00,,,0.00,VWS V14.01,2013-01-05 11:37:00,
2013-01-05 05:40:00,14.9,12.5,30.04,SSW,200,0.0,0.0,90,0.00,,,0.00,VWS V14.01,2013-01-05 11:40:00,
2013-01-05 05:42:00,14.8,12.6,30.04,SSW,202,0.0,0.0,91,0.00,,,0.00,VWS V14.01,2013-01-05 11:42:00,
2013-01-05 05:45:00,14.8,12.6,30.04,SSW,202,0.0,0.0,91,0.00,,,0.00,VWS V14.01,2013-01-05 11:45:00,
2013-01-05 05:47:00,14.6,12.5,30.04,SSW,202,0.0,0.0,91,0.00,,,0.00,VWS V14.01,2013-01-05 11:47:00,
2013-01-05 05:50:00,14.6,12.5,30.04,SSW,205,0.0,0.0,91,0.00,,,0.00,VWS V14.01,2013-01-05 11:50:00,
2013-01-05 05:52:00,14.4,12.3,30.04,SSW,203,0.0,0.0,91,0.00,,,0.00,VWS V14.01,2013-01-05 11:52:00,
2013-01-05 05:55:00,14.4,12.3,30.04,SSW,205,4.0,4.0,91,0.00,,,0.00,VWS V14.01,2013-01-05 11:55:00,
2013-01-05 05:57:00,14.0,11.6,30.04,SSW,209,3.0,4.0,90,0.00,,,0.00,VWS V14.01,2013-01-05 11:57:00,
2013-01-05 06:00:00,13.8,11.4,30.03,SSW,212,3.0,5.0,90,0.00,,,0.00,VWS V14.01,2013-01-05 12:00:00,
2013-01-05 06:02:00,13.8,11.7,30.03,SSW,199,6.0,6.0,91,0.00,,,0.00,VWS V14.01,2013-01-05 12:02:00,
2013-01-05 06:05:00,14.0,11.9,30.03,SSW,200,5.0,6.0,91,0.00,,,0.00,VWS V14.01,2013-01-05 12:05:00,
2013-01-05 06:07:00,13.6,11.2,30.03,SSW,202,4.0,6.0,90,0.00,,,0.00,VWS V14.01,2013-01-05 12:07:00,
2013-01-05 06:10:00,13.5,11.1,30.03,SSW,202,6.0,7.0,90,0.00,,,0.00,VWS V14.01,2013-01-05 12:10:00,
2013-01-05 06:12:00,13.3,10.9,30.03,SSW,198,5.0,6.0,90,0.00,,,0.00,VWS V14.01,2013-01-05 12:12:00,
2013-01-05 06:15:00,13.3,10.9,30.02,South,184,6.0,6.0,90,0.00,,,0.00,VWS V14.01,2013-01-05 12:15:00,
2013-01-05 06:17:00,13.5,11.4,30.02,SSE,164,5.0,7.0,91,0.00,,,0.00,VWS V14.01,2013-01-05 12:17:00,
2013-01-05 06:20:00,13.8,11.7,30.02,SSE,165,4.0,7.0,91,0.00,,,0.00,VWS V14.01,2013-01-05 12:20:00,
2013-01-05 06:22:00,14.4,12.3,30.02,SSE,167,2.0,6.0,91,0.00,,,0.00,VWS V14.01,2013-01-05 12:22:00,
2013-01-05 06:25:00,14.8,12.6,30.02,SSE,160,3.0,6.0,91,0.00,,,0.00,VWS V14.01,2013-01-05 12:25:00,
2013-01-05 06:27:00,15.1,12.7,30.02,South,172,3.0,5.0,90,0.00,,,0.00,VWS V14.01,2013-01-05 12:27:00,
2013-01-05 06:30:00,15.2,12.8,30.01,SSE,161,2.0,5.0,90,0.00,,,0.00,VWS V14.01,2013-01-05 12:30:00,
2013-01-05 06:32:00,14.9,12.2,30.01,SSE,167,3.0,5.0,89,0.00,,,0.00,VWS V14.01,2013-01-05 12:32:00,
2013-01-05 06:35:00,14.8,11.9,30.01,SSE,167,2.0,5.0,88,0.00,,,0.00,VWS V14.01,2013-01-05 12:35:00,
2013-01-05 06:38:00,15.1,12.4,30.01,SSE,160,4.0,5.0,89,0.00,,,0.00,VWS V14.01,2013-01-05 12:38:00,
2013-01-05 06:40:00,15.1,12.2,30.01,SSE,164,3.0,5.0,88,0.00,,,0.00,VWS V14.01,2013-01-05 12:40:00,
2013-01-05 06:43:00,15.2,12.0,30.01,SSE,158,3.0,5.0,87,0.00,,,0.00,VWS V14.01,2013-01-05 12:43:00,
2013-01-05 06:45:00,15.2,12.0,30.00,SSE,157,3.0,5.0,87,0.00,,,0.00,VWS V14.01,2013-01-05 12:45:00,
2013-01-05 06:48:00,15.2,12.0,30.00,SSE,158,2.0,3.0,87,0.00,,,0.00,VWS V14.01,2013-01-05 12:48:00,
2013-01-05 06:50:00,15.2,11.8,30.00,SSE,160,2.0,3.0,86,0.00,,,0.00,VWS V14.01,2013-01-05 12:50:00,
2013-01-05 06:53:00,15.1,11.7,30.00,South,178,2.0,5.0,86,0.00,,,0.00,VWS V14.01,2013-01-05 12:53:00,
2013-01-05 06:55:00,15.1,11.7,30.00,South,175,2.0,5.0,86,0.00,,,0.00,VWS V14.01,2013-01-05 12:55:00,
2013-01-05 06:58:00,14.6,10.9,30.00,SSE,164,2.0,3.0,85,0.00,,,0.00,VWS V14.01,2013-01-05 12:58:00,
2013-01-05 07:00:00,14.4,10.7,29.99,SSE,161,1.0,3.0,85,0.00,,,0.00,VWS V14.01,2013-01-05 13:00:00,
2013-01-05 07:03:00,14.1,10.7,29.99,SSE,168,2.0,3.0,86,0.00,,,0.00,VWS V14.01,2013-01-05 13:03:00,
2013-01-05 07:05:00,14.1,10.7,29.99,SSE,167,2.0,3.0,86,0.00,,,0.00,VWS V14.01,2013-01-05 13:05:00,
2013-01-05 07:08:00,14.0,10.6,29.99,South,172,3.0,3.0,86,0.00,,,0.00,VWS V14.01,2013-01-05 13:08:00,
2013-01-05 07:10:00,14.1,10.7,29.99,South,174,2.0,3.0,86,0.00,,,0.00,VWS V14.01,2013-01-05 13:10:00,
2013-01-05 07:13:00,14.4,11.2,29.99,South,179,3.0,3.0,87,0.00,,,0.00,VWS V14.01,2013-01-05 13:13:00,
2013-01-05 07:15:00,14.6,11.4,29.99,SSW,205,3.0,3.0,87,0.00,,,0.00,VWS V14.01,2013-01-05 13:15:00,
2013-01-05 07:18:00,14.3,10.9,29.99,SW,229,3.0,5.0,86,0.00,,,0.00,VWS V14.01,2013-01-05 13:18:00,
2013-01-05 07:20:00,14.3,10.9,29.99,SW,229,2.0,5.0,86,0.00,,,0.00,VWS V14.01,2013-01-05 13:20:00,
2013-01-05 07:23:00,13.8,10.6,29.99,SW,229,3.0,3.0,87,0.00,,,0.00,VWS V14.01,2013-01-05 13:23:00,
2013-01-05 07:25:00,13.8,10.6,29.99,SW,229,3.0,4.0,87,0.00,,,0.00,VWS V14.01,2013-01-05 13:25:00,
2013-01-05 07:28:00,14.1,11.2,29.98,SW,227,2.0,3.0,88,0.00,,,0.00,VWS V14.01,2013-01-05 13:28:00,
2013-01-05 07:30:00,14.3,11.4,29.98,SW,229,2.0,3.0,88,0.00,,,0.00,VWS V14.01,2013-01-05 13:30:00,
2013-01-05 07:33:00,14.8,12.1,29.98,SW,227,0.0,2.0,89,0.00,,,0.00,VWS V14.01,2013-01-05 13:33:00,
2013-01-05 07:35:00,14.9,12.2,29.98,SW,226,0.0,2.0,89,0.00,,,0.00,VWS V14.01,2013-01-05 13:35:00,
2013-01-05 07:38:00,15.1,12.2,29.98,SW,229,0.0,0.0,88,0.00,,,0.00,VWS V14.01,2013-01-05 13:38:00,
2013-01-05 07:40:00,15.1,12.2,29.98,SW,232,0.0,0.0,88,0.00,,,0.00,VWS V14.01,2013-01-05 13:40:00,
2013-01-05 07:43:00,15.2,12.3,29.97,WSW,253,0.0,0.0,88,0.00,,,0.00,VWS V14.01,2013-01-05 13:43:00,
2013-01-05 07:45:00,15.2,12.3,29.97,WSW,253,0.0,0.0,88,0.00,,,0.00,VWS V14.01,2013-01-05 13:45:00,
2013-01-05 07:48:00,15.2,12.0,29.97,WSW,256,0.0,0.0,87,0.00,,,0.00,VWS V14.01,2013-01-05 13:48:00,
2013-01-05 07:50:00,15.2,12.0,29.97,WSW,253,0.0,0.0,87,0.00,,,0.00,VWS V14.01,2013-01-05 13:50:00,
2013-01-05 07:53:00,15.2,12.0,29.97,SW,224,0.0,0.0,87,0.00,,,0.00,VWS V14.01,2013-01-05 13:53:00,
2013-01-05 07:55:00,15.2,12.0,29.97,WSW,251,0.0,0.0,87,0.00,,,0.00,VWS V14.01,2013-01-05 13:55:00,
2013-01-05 07:58:00,15.2,12.0,29.98,SW,224,0.0,0.0,87,0.00,,,0.00,VWS V14.01,2013-01-05 13:58:00,
2013-01-05 08:00:00,15.2,12.0,29.98,SW,223,0.0,0.0,87,0.00,,,0.00,VWS V14.01,2013-01-05 14:00:00,
2013-01-05 08:04:00,14.9,11.5,29.98,SW,227,0.0,0.0,86,0.00,,,0.00,VWS V14.01,2013-01-05 14:04:00,
2013-01-05 08:05:00,14.9,11.5,29.98,SW,226,0.0,0.0,86,0.00,,,0.00,VWS V14.01,2013-01-05 14:05:00,
2013-01-05 08:09:00,14.8,11.4,29.98,SW,223,0.0,0.0,86,0.00,,,0.00,VWS V14.01,2013-01-05 14:09:00,
2013-01-05 08:10:00,14.6,11.2,29.98,SW,224,0.0,0.0,86,0.00,,,0.00,VWS V14.01,2013-01-05 14:10:00,
2013-01-05 08:14:00,14.6,11.2,29.98,WNW,287,0.0,0.0,86,0.00,,,0.00,VWS V14.01,2013-01-05 14:14:00,
2013-01-05 08:15:00,14.6,11.2,29.98,WNW,287,0.0,0.0,86,0.00,,,0.00,VWS V14.01,2013-01-05 14:15:00,
2013-01-05 08:19:00,14.9,11.5,29.98,WNW,285,0.0,0.0,86,0.00,,,0.00,VWS V14.01,2013-01-05 14:19:00,
2013-01-05 08:20:00,14.9,11.5,29.98,WNW,285,0.0,0.0,86,0.00,,,0.00,VWS V14.01,2013-01-05 14:20:00,
2013-01-05 08:24:00,14.9,11.2,29.98,WNW,287,0.0,0.0,85,0.00,,,0.00,VWS V14.01,2013-01-05 14:24:00,
2013-01-05 08:25:00,14.9,11.2,29.98,WNW,287,0.0,0.0,85,0.00,,,0.00,VWS V14.01,2013-01-05 14:25:00,
2013-01-05 08:29:00,14.9,10.9,29.98,WNW,287,2.0,3.0,84,0.00,,,0.00,VWS V14.01,2013-01-05 14:29:00,
2013-01-05 08:30:00,14.9,11.2,29.98,WNW,287,2.0,3.0,85,0.00,,,0.00,VWS V14.01,2013-01-05 14:30:00,
2013-01-05 08:34:00,14.9,10.9,29.98,WNW,288,0.0,3.0,84,0.00,,,0.00,VWS V14.01,2013-01-05 14:34:00,
2013-01-05 08:39:00,14.9,10.9,29.98,NW,308,3.0,5.0,84,0.00,,,0.00,VWS V14.01,2013-01-05 14:39:00,
2013-01-05 08:40:00,14.9,10.9,29.98,NW,308,3.0,5.0,84,0.00,,,0.00,VWS V14.01,2013-01-05 14:40:00,
2013-01-05 08:44:00,14.6,10.7,29.99,NW,315,5.0,6.0,84,0.00,,,0.00,VWS V14.01,2013-01-05 14:44:00,
2013-01-05 08:45:00,14.6,10.6,29.99,NW,315,5.0,6.0,84,0.00,,,0.00,VWS V14.01,2013-01-05 14:45:00,
2013-01-05 08:49:00,14.8,11.4,29.99,NW,320,4.0,5.0,86,0.00,,,0.00,VWS V14.01,2013-01-05 14:49:00,
2013-01-05 08:50:00,14.8,11.4,29.99,NW,320,4.0,5.0,86,0.00,,,0.00,VWS V14.01,2013-01-05 14:50:00,
2013-01-05 08:54:00,15.4,12.2,29.99,NW,325,0.0,5.0,87,0.00,,,0.00,VWS V14.01,2013-01-05 14:54:00,
2013-01-05 08:55:00,15.4,12.2,29.99,NW,325,0.0,5.0,87,0.00,,,0.00,VWS V14.01,2013-01-05 14:55:00,
2013-01-05 08:59:00,16.2,13.0,29.99,NW,326,0.0,0.0,87,0.00,,,0.00,VWS V14.01,2013-01-05 14:59:00,
2013-01-05 09:00:00,16.2,13.0,29.99,NW,326,0.0,0.0,87,0.00,,,0.00,VWS V14.01,2013-01-05 15:00:00,
2013-01-05 09:04:00,16.7,13.2,29.99,NW,322,0.0,0.0,86,0.00,,,0.00,VWS V14.01,2013-01-05 15:04:00,
2013-01-05 09:05:00,16.7,13.2,29.99,NW,322,0.0,0.0,86,0.00,,,0.00,VWS V14.01,2013-01-05 15:05:00,
2013-01-05 09:09:00,16.9,13.4,29.99,NW,326,0.0,0.0,86,0.00,,,0.00,VWS V14.01,2013-01-05 15:09:00,
2013-01-05 09:10:00,16.9,13.4,29.99,NNW,328,0.0,0.0,86,0.00,,,0.00,VWS V14.01,2013-01-05 15:10:00,
2013-01-05 09:14:00,17.2,13.7,29.99,NW,322,0.0,0.0,86,0.00,,,0.00,VWS V14.01,2013-01-05 15:14:00,
2013-01-05 09:15:00,17.2,13.7,29.99,NW,322,0.0,0.0,86,0.00,,,0.00,VWS V14.01,2013-01-05 15:15:00,
2013-01-05 09:19:00,17.5,14.0,29.99,NNW,328,0.0,0.0,86,0.00,,,0.00,VWS V14.01,2013-01-05 15:19:00,
2013-01-05 09:20:00,17.5,14.0,29.99,NNW,328,0.0,0.0,86,0.00,,,0.00,VWS V14.01,2013-01-05 15:20:00,
2013-01-05 09:24:00,18.4,14.9,29.99,NNW,337,0.0,0.0,86,0.00,,,0.00,VWS V14.01,2013-01-05 15:24:00,
2013-01-05 09:25:00,18.4,14.9,29.99,NNW,337,0.0,0.0,86,0.00,,,0.00,VWS V14.01,2013-01-05 15:25:00,
2013-01-05 09:30:00,18.1,13.8,29.98,NNW,337,0.0,0.0,83,0.00,,,0.00,VWS V14.01,2013-01-05 15:30:00,
2013-01-05 09:35:00,18.1,13.8,29.98,NNW,339,0.0,0.0,83,0.00,,,0.00,VWS V14.01,2013-01-05 15:35:00,
2013-01-05 09:40:00,18.9,14.6,29.98,NNW,337,0.0,0.0,83,0.00,,,0.00,VWS V14.01,2013-01-05 15:40:00,
2013-01-05 09:45:00,19.2,14.3,29.98,NNW,339,0.0,0.0,81,0.00,,,0.00,VWS V14.01,2013-01-05 15:45:00,
2013-01-05 09:50:00,19.5,14.6,29.98,NW,320,0.0,0.0,81,0.00,,,0.00,VWS V14.01,2013-01-05 15:50:00,
2013-01-05 09:55:00,19.9,14.7,29.98,NW,320,0.0,0.0,80,0.00,,,0.00,VWS V14.01,2013-01-05 15:55:00,
2013-01-05 10:00:00,20.3,14.8,29.97,NW,320,0.0,0.0,79,0.00,,,0.00,VWS V14.01,2013-01-05 16:00:00,
2013-01-05 10:05:00,21.0,14.9,29.97,NW,313,0.0,0.0,77,0.00,,,0.00,VWS V14.01,2013-01-05 16:05:00,
2013-01-05 10:10:00,21.3,15.2,29.97,NW,311,0.0,0.0,77,0.00,,,0.00,VWS V14.01,2013-01-05 16:10:00,
2013-01-05 10:15:00,21.8,15.4,29.97,South,171,0.0,1.0,76,0.00,,,0.00,VWS V14.01,2013-01-05 16:15:00,
2013-01-05 10:20:00,22.1,15.4,29.97,SSE,165,0.0,0.0,75,0.00,,,0.00,VWS V14.01,2013-01-05 16:20:00,
2013-01-05 10:25:00,22.2,15.2,29.97,SE,145,0.0,6.0,74,0.00,,,0.00,VWS V14.01,2013-01-05 16:25:00,
2013-01-05 10:30:00,22.2,14.9,29.96,SSE,150,3.0,3.0,73,0.00,,,0.00,VWS V14.01,2013-01-05 16:30:00,
2013-01-05 10:35:00,22.1,14.8,29.96,SE,141,1.0,3.0,73,0.00,,,0.00,VWS V14.01,2013-01-05 16:35:00,
2013-01-05 10:40:00,21.9,14.3,29.96,SE,131,0.0,1.0,72,0.00,,,0.00,VWS V14.01,2013-01-05 16:40:00,
2013-01-05 10:45:00,21.8,14.5,29.96,SE,141,0.0,6.0,73,0.00,,,0.00,VWS V14.01,2013-01-05 16:45:00,
2013-01-05 10:50:00,21.9,14.6,29.96,SE,143,0.0,1.0,73,0.00,,,0.00,VWS V14.01,2013-01-05 16:50:00,
2013-01-05 10:55:00,22.1,14.8,29.96,SE,137,0.0,1.0,73,0.00,,,0.00,VWS V14.01,2013-01-05 16:55:00,
2013-01-05 11:00:00,22.2,14.9,29.96,SE,137,0.0,1.0,73,0.00,,,0.00,VWS V14.01,2013-01-05 17:00:00,
2013-01-05 11:01:00,22.2,14.6,29.96,SSE,152,0.0,0.0,72,0.00,,,0.00,VWS V14.01,2013-01-05 17:01:00,
2013-01-05 11:06:00,22.1,13.8,29.96,South,175,5.0,5.0,70,0.00,,,0.00,VWS V14.01,2013-01-05 17:06:00,
2013-01-05 11:10:00,21.6,13.3,29.96,South,179,0.0,5.0,70,0.00,,,0.00,VWS V14.01,2013-01-05 17:10:00,
2013-01-05 11:11:00,21.6,13.3,29.96,South,181,0.0,0.0,70,0.00,,,0.00,VWS V14.01,2013-01-05 17:11:00,
2013-01-05 11:15:00,21.3,13.4,29.95,South,179,0.0,1.0,71,0.00,,,0.00,VWS V14.01,2013-01-05 17:15:00,
2013-01-05 11:16:00,21.3,13.1,29.95,South,179,0.0,0.0,70,0.00,,,0.00,VWS V14.01,2013-01-05 17:16:00,
2013-01-05 11:21:00,21.3,13.4,29.95,SSE,164,0.0,2.0,71,0.00,,,0.00,VWS V14.01,2013-01-05 17:21:00,
2013-01-05 11:25:00,21.1,13.5,29.95,SSW,212,0.0,3.0,72,0.00,,,0.00,VWS V14.01,2013-01-05 17:25:00,
2013-01-05 11:26:00,21.0,13.4,29.95,SSW,213,0.0,0.0,72,0.00,,,0.00,VWS V14.01,2013-01-05 17:26:00,
2013-01-05 11:30:00,21.1,13.5,29.94,SW,216,0.0,0.0,72,0.00,,,0.00,VWS V14.01,2013-01-05 17:30:00,
2013-01-05 11:31:00,21.3,13.4,29.94,SSW,213,0.0,0.0,71,0.00,,,0.00,VWS V14.01,2013-01-05 17:31:00,
2013-01-05 11:35:00,21.4,13.5,29.94,SW,215,0.0,0.0,71,0.00,,,0.00,VWS V14.01,2013-01-05 17:35:00,
2013-01-05 11:36:00,21.6,13.7,29.94,SSW,212,0.0,0.0,71,0.00,,,0.00,VWS V14.01,2013-01-05 17:36:00,
2013-01-05 11:40:00,21.9,13.9,29.94,SSE,160,0.0,0.0,71,0.00,,,0.00,VWS V14.01,2013-01-05 17:40:00,
2013-01-05 11:41:00,22.1,13.8,29.94,SSE,158,0.0,0.0,70,0.00,,,0.00,VWS V14.01,2013-01-05 17:41:00,
2013-01-05 11:45:00,22.4,14.1,29.93,SSE,160,0.0,0.0,70,0.00,,,0.00,VWS V14.01,2013-01-05 17:45:00,
2013-01-05 11:46:00,22.5,14.2,29.93,SSE,160,0.0,0.0,70,0.00,,,0.00,VWS V14.01,2013-01-05 17:46:00,
2013-01-05 11:51:00,23.0,14.0,29.93,SSW,213,0.0,0.0,68,0.00,,,0.00,VWS V14.01,2013-01-05 17:51:00,
2013-01-05 11:55:00,23.0,14.4,29.93,South,179,0.0,0.0,69,0.00,,,0.00,VWS V14.01,2013-01-05 17:55:00,
2013-01-05 11:56:00,23.2,14.6,29.93,SSE,165,0.0,0.0,69,0.00,,,0.00,VWS V14.01,2013-01-05 17:56:00,
2013-01-05 12:00:00,23.2,14.6,29.91,SSE,167,0.0,0.0,69,0.00,,,0.00,VWS V14.01,2013-01-05 18:00:00,
2013-01-05 12:02:00,23.2,14.2,29.91,South,172,0.0,2.0,68,0.00,,,0.00,VWS V14.01,2013-01-05 18:02:00,
2013-01-05 12:05:00,23.0,14.0,29.91,South,169,0.0,2.0,68,0.00,,,0.00,VWS V14.01,2013-01-05 18:05:00,
2013-01-05 12:07:00,22.9,14.3,29.91,South,169,0.0,0.0,69,0.00,,,0.00,VWS V14.01,2013-01-05 18:07:00,
2013-01-05 12:10:00,22.9,14.3,29.91,South,171,0.0,0.0,69,0.00,,,0.00,VWS V14.01,2013-01-05 18:10:00,
2013-01-05 12:12:00,22.9,14.6,29.91,South,169,0.0,0.0,70,0.00,,,0.00,VWS V14.01,2013-01-05 18:12:00,
2013-01-05 12:15:00,23.0,14.0,29.91,SSE,158,0.0,0.0,68,0.00,,,0.00,VWS V14.01,2013-01-05 18:15:00,
2013-01-05 12:17:00,22.9,13.9,29.91,SSE,157,0.0,0.0,68,0.00,,,0.00,VWS V14.01,2013-01-05 18:17:00,
2013-01-05 12:20:00,22.9,14.3,29.91,SSE,157,0.0,0.0,69,0.00,,,0.00,VWS V14.01,2013-01-05 18:20:00,
2013-01-05 12:22:00,22.7,14.4,29.91,SSE,157,0.0,0.0,70,0.00,,,0.00,VWS V14.01,2013-01-05 18:22:00,
2013-01-05 12:25:00,22.7,14.4,29.91,SSE,157,0.0,0.0,70,0.00,,,0.00,VWS V14.01,2013-01-05 18:25:00,
2013-01-05 12:27:00,23.0,14.7,29.91,South,176,0.0,0.0,70,0.00,,,0.00,VWS V14.01,2013-01-05 18:27:00,
2013-01-05 12:30:00,23.2,14.6,29.90,SSE,167,0.0,0.0,69,0.00,,,0.00,VWS V14.01,2013-01-05 18:30:00,
2013-01-05 12:32:00,23.2,14.2,29.90,South,171,0.0,0.0,68,0.00,,,0.00,VWS V14.01,2013-01-05 18:32:00,
2013-01-05 12:35:00,23.0,14.0,29.90,SSW,193,0.0,0.0,68,0.00,,,0.00,VWS V14.01,2013-01-05 18:35:00,
2013-01-05 12:37:00,22.9,14.3,29.90,South,176,0.0,0.0,69,0.00,,,0.00,VWS V14.01,2013-01-05 18:37:00,
2013-01-05 12:40:00,22.9,14.3,29.90,South,185,0.0,0.0,69,0.00,,,0.00,VWS V14.01,2013-01-05 18:40:00,
2013-01-05 12:42:00,23.0,14.4,29.90,South,176,0.0,0.0,69,0.00,,,0.00,VWS V14.01,2013-01-05 18:42:00,
2013-01-05 12:45:00,23.0,14.0,29.89,SSE,168,0.0,0.0,68,0.00,,,0.00,VWS V14.01,2013-01-05 18:45:00,
2013-01-05 12:47:00,23.0,14.4,29.89,South,172,0.0,0.0,69,0.00,,,0.00,VWS V14.01,2013-01-05 18:47:00,
2013-01-05 12:50:00,22.9,14.3,29.89,SSE,164,0.0,1.0,69,0.00,,,0.00,VWS V14.01,2013-01-05 18:50:00,
2013-01-05 12:52:00,22.9,14.3,29.89,SSE,164,1.0,2.0,69,0.00,,,0.00,VWS V14.01,2013-01-05 18:52:00,
2013-01-05 12:55:00,22.7,14.4,29.89,SSE,158,1.0,3.0,70,0.00,,,0.00,VWS V14.01,2013-01-05 18:55:00,
2013-01-05 12:57:00,22.4,14.1,29.89,SE,138,1.0,2.0,70,0.00,,,0.00,VWS V14.01,2013-01-05 18:57:00,
2013-01-05 13:02:00,22.1,14.1,29.88,SSE,148,0.0,5.0,71,0.00,,,0.00,VWS V14.01,2013-01-05 19:02:00,
2013-01-05 13:05:00,21.9,14.3,29.88,SSE,148,5.0,6.0,72,0.00,,,0.00,VWS V14.01,2013-01-05 19:05:00,
2013-01-05 13:07:00,21.8,14.2,29.88,SE,128,1.0,5.0,72,0.00,,,0.00,VWS V14.01,2013-01-05 19:07:00,
2013-01-05 13:10:00,21.8,14.2,29.88,ESE,121,0.0,5.0,72,0.00,,,0.00,VWS V14.01,2013-01-05 19:10:00,
2013-01-05 13:12:00,21.9,14.3,29.88,ESE,121,1.0,1.0,72,0.00,,,0.00,VWS V14.01,2013-01-05 19:12:00,
2013-01-05 13:15:00,21.9,14.3,29.88,ESE,121,1.0,1.0,72,0.00,,,0.00,VWS V14.01,2013-01-05 19:15:00,
2013-01-05 13:17:00,21.9,14.3,29.88,ESE,120,0.0,2.0,72,0.00,,,0.00,VWS V14.01,2013-01-05 19:17:00,
2013-01-05 13:20:00,21.9,14.3,29.88,ESE,120,0.0,2.0,72,0.00,,,0.00,VWS V14.01,2013-01-05 19:20:00,
2013-01-05 13:22:00,22.1,14.5,29.88,ESE,120,1.0,2.0,72,0.00,,,0.00,VWS V14.01,2013-01-05 19:22:00,
2013-01-05 13:25:00,22.1,14.5,29.88,ESE,120,1.0,2.0,72,0.00,,,0.00,VWS V14.01,2013-01-05 19:25:00,
2013-01-05 13:27:00,22.1,14.1,29.88,ESE,119,1.0,2.0,71,0.00,,,0.00,VWS V14.01,2013-01-05 19:27:00,
2013-01-05 13:30:00,22.1,14.1,29.87,ESE,119,0.0,2.0,71,0.00,,,0.00,VWS V14.01,2013-01-05 19:30:00,
2013-01-05 13:32:00,22.1,14.5,29.87,ESE,119,1.0,2.0,72,0.00,,,0.00,VWS V14.01,2013-01-05 19:32:00,
2013-01-05 13:35:00,22.1,14.5,29.87,ESE,120,0.0,2.0,72,0.00,,,0.00,VWS V14.01,2013-01-05 19:35:00,
2013-01-05 13:37:00,22.2,14.2,29.87,ESE,121,1.0,1.0,71,0.00,,,0.00,VWS V14.01,2013-01-05 19:37:00,
2013-01-05 13:40:00,22.4,14.4,29.87,ESE,121,0.0,1.0,71,0.00,,,0.00,VWS V14.01,2013-01-05 19:40:00,
2013-01-05 13:43:00,22.7,14.7,29.87,ESE,121,0.0,0.0,71,0.00,,,0.00,VWS V14.01,2013-01-05 19:43:00,
2013-01-05 13:45:00,22.9,14.6,29.87,SSE,154,1.0,1.0,70,0.00,,,0.00,VWS V14.01,2013-01-05 19:45:00,
2013-01-05 13:48:00,23.2,14.9,29.87,SE,136,0.0,1.0,70,0.00,,,0.00,VWS V14.01,2013-01-05 19:48:00,
2013-01-05 13:50:00,23.2,14.9,29.87,SE,141,0.0,1.0,70,0.00,,,0.00,VWS V14.01,2013-01-05 19:50:00,
2013-01-05 13:53:00,23.6,14.9,29.87,SSE,154,0.0,0.0,69,0.00,,,0.00,VWS V14.01,2013-01-05 19:53:00,
2013-01-05 13:55:00,23.6,14.9,29.87,SSE,155,0.0,0.0,69,0.00,,,0.00,VWS V14.01,2013-01-05 19:55:00,
2013-01-05 13:58:00,23.3,14.6,29.87,SE,138,0.0,0.0,69,0.00,,,0.00,VWS V14.01,2013-01-05 19:58:00,
2013-01-05 14:00:00,23.3,15.0,29.86,SE,141,0.0,0.0,70,0.00,,,0.00,VWS V14.01,2013-01-05 20:00:00,
2013-01-05 14:03:00,23.3,15.0,29.86,SE,141,0.0,0.0,70,0.00,,,0.00,VWS V14.01,2013-01-05 20:03:00,
2013-01-05 14:05:00,23.3,15.0,29.86,SE,136,0.0,0.0,70,0.00,,,0.00,VWS V14.01,2013-01-05 20:05:00,
2013-01-05 14:08:00,23.6,15.3,29.86,SSE,147,0.0,0.0,70,0.00,,,0.00,VWS V14.01,2013-01-05 20:08:00,
2013-01-05 14:10:00,23.5,15.2,29.86,SE,136,0.0,0.0,70,0.00,,,0.00,VWS V14.01,2013-01-05 20:10:00,
2013-01-05 14:13:00,23.6,15.3,29.86,SE,134,0.0,0.0,70,0.00,,,0.00,VWS V14.01,2013-01-05 20:13:00,
2013-01-05 14:15:00,23.8,15.1,29.85,SE,143,0.0,0.0,69,0.00,,,0.00,VWS V14.01,2013-01-05 20:15:00,
2013-01-05 14:18:00,23.9,15.2,29.85,SE,137,0.0,0.0,69,0.00,,,0.00,VWS V14.01,2013-01-05 20:18:00,
2013-01-05 14:20:00,24.1,15.4,29.85,SE,138,0.0,1.0,69,0.00,,,0.00,VWS V14.01,2013-01-05 20:20:00,
2013-01-05 14:23:00,24.1,15.4,29.85,SE,136,0.0,1.0,69,0.00,,,0.00,VWS V14.01,2013-01-05 20:23:00,
2013-01-05 14:25:00,23.9,15.2,29.85,SE,136,0.0,1.0,69,0.00,,,0.00,VWS V14.01,2013-01-05 20:25:00,
2013-01-05 14:28:00,24.2,15.8,29.85,SE,144,0.0,0.0,70,0.00,,,0.00,VWS V14.01,2013-01-05 20:28:00,
2013-01-05 14:30:00,24.2,15.8,29.85,SE,124,0.0,0.0,70,0.00,,,0.00,VWS V14.01,2013-01-05 20:30:00,
2013-01-05 14:33:00,23.6,14.9,29.85,ESE,120,0.0,1.0,69,0.00,,,0.00,VWS V14.01,2013-01-05 20:33:00,
2013-01-05 14:35:00,23.6,15.3,29.85,ESE,120,0.0,1.0,70,0.00,,,0.00,VWS V14.01,2013-01-05 20:35:00,
2013-01-05 14:38:00,23.5,15.2,29.85,ESE,117,0.0,0.0,70,0.00,,,0.00,VWS V14.01,2013-01-05 20:38:00,
2013-01-05 14:40:00,23.5,15.2,29.85,ESE,117,0.0,0.0,70,0.00,,,0.00,VWS V14.01,2013-01-05 20:40:00,
2013-01-05 14:43:00,23.6,15.3,29.85,ESE,117,0.0,0.0,70,0.00,,,0.00,VWS V14.01,2013-01-05 20:43:00,
2013-01-05 14:45:00,23.6,15.3,29.85,ESE,117,0.0,0.0,70,0.00,,,0.00,VWS V14.01,2013-01-05 20:45:00,
2013-01-05 14:48:00,23.6,15.3,29.85,ESE,116,0.0,0.0,70,0.00,,,0.00,VWS V14.01,2013-01-05 20:48:00,
2013-01-05 14:50:00,23.5,15.2,29.85,ESE,116,0.0,0.0,70,0.00,,,0.00,VWS V14.01,2013-01-05 20:50:00,
2013-01-05 14:53:00,23.5,15.2,29.85,ESE,120,0.0,0.0,70,0.00,,,0.00,VWS V14.01,2013-01-05 20:53:00,
2013-01-05 14:55:00,23.6,15.3,29.85,SSE,168,0.0,0.0,70,0.00,,,0.00,VWS V14.01,2013-01-05 20:55:00,
2013-01-05 14:58:00,23.3,15.0,29.86,SE,127,0.0,0.0,70,0.00,,,0.00,VWS V14.01,2013-01-05 20:58:00,
2013-01-05 15:03:00,23.2,14.9,29.86,SSE,148,0.0,0.0,70,0.00,,,0.00,VWS V14.01,2013-01-05 21:03:00,
2013-01-05 15:05:00,23.2,14.9,29.86,SSE,147,0.0,0.0,70,0.00,,,0.00,VWS V14.01,2013-01-05 21:05:00,
2013-01-05 15:08:00,23.2,15.2,29.86,SE,134,0.0,1.0,71,0.00,,,0.00,VWS V14.01,2013-01-05 21:08:00,
2013-01-05 15:10:00,23.2,15.2,29.86,SE,127,0.0,1.0,71,0.00,,,0.00,VWS V14.01,2013-01-05 21:10:00,
2013-01-05 15:13:00,23.2,15.5,29.87,North,0,2.0,2.0,72,0.00,,,0.00,VWS V14.01,2013-01-05 21:13:00,
2013-01-05 15:15:00,23.2,15.5,29.87,North,0,1.0,2.0,72,0.00,,,0.00,VWS V14.01,2013-01-05 21:15:00,
2013-01-05 15:19:00,23.2,15.8,29.87,NNW,344,1.0,2.0,73,0.00,,,0.00,VWS V14.01,2013-01-05 21:19:00,
2013-01-05 15:20:00,23.2,15.8,29.87,NNW,343,0.0,2.0,73,0.00,,,0.00,VWS V14.01,2013-01-05 21:20:00,
2013-01-05 15:24:00,23.3,15.9,29.87,NNW,343,0.0,1.0,73,0.00,,,0.00,VWS V14.01,2013-01-05 21:24:00,
2013-01-05 15:25:00,23.3,15.9,29.87,NNW,344,0.0,1.0,73,0.00,,,0.00,VWS V14.01,2013-01-05 21:25:00,
2013-01-05 15:29:00,23.5,16.5,29.86,NNW,344,0.0,0.0,74,0.00,,,0.00,VWS V14.01,2013-01-05 21:29:00,
2013-01-05 15:30:00,23.5,16.5,29.86,NNW,344,0.0,0.0,74,0.00,,,0.00,VWS V14.01,2013-01-05 21:30:00,
2013-01-05 15:34:00,23.5,17.1,29.86,North,1,1.0,1.0,76,0.00,,,0.00,VWS V14.01,2013-01-05 21:34:00,
2013-01-05 15:35:00,23.5,17.1,29.86,North,1,1.0,1.0,76,0.00,,,0.00,VWS V14.01,2013-01-05 21:35:00,
2013-01-05 15:39:00,23.5,17.1,29.86,North,1,1.0,1.0,76,0.00,,,0.00,VWS V14.01,2013-01-05 21:39:00,
2013-01-05 15:40:00,23.5,17.1,29.86,North,1,1.0,1.0,76,0.00,,,0.00,VWS V14.01,2013-01-05 21:40:00,
2013-01-05 15:44:00,23.5,17.1,29.86,North,3,0.0,1.0,76,0.00,,,0.00,VWS V14.01,2013-01-05 21:44:00,
2013-01-05 15:45:00,23.5,17.1,29.86,North,3,0.0,1.0,76,0.00,,,0.00,VWS V14.01,2013-01-05 21:45:00,
2013-01-05 15:49:00,23.3,17.2,29.86,North,3,0.0,0.0,77,0.00,,,0.00,VWS V14.01,2013-01-05 21:49:00,
2013-01-05 15:50:00,23.3,17.2,29.86,North,3,0.0,0.0,77,0.00,,,0.00,VWS V14.01,2013-01-05 21:50:00,
2013-01-05 15:54:00,23.5,17.4,29.86,NE,35,0.0,1.0,77,0.00,,,0.00,VWS V14.01,2013-01-05 21:54:00,
2013-01-05 15:55:00,23.5,17.4,29.86,NE,35,0.0,1.0,77,0.00,,,0.00,VWS V14.01,2013-01-05 21:55:00,
2013-01-05 15:59:00,23.6,17.5,29.86,NE,37,0.0,0.0,77,0.00,,,0.00,VWS V14.01,2013-01-05 21:59:00,
2013-01-05 16:00:00,23.6,17.5,29.86,NE,37,0.0,0.0,77,0.00,,,0.00,VWS V14.01,2013-01-05 22:00:00,
2013-01-05 16:04:00,23.8,17.7,29.86,NE,42,0.0,0.0,77,0.00,,,0.00,VWS V14.01,2013-01-05 22:04:00,
2013-01-05 16:05:00,23.8,17.7,29.86,NE,42,0.0,0.0,77,0.00,,,0.00,VWS V14.01,2013-01-05 22:05:00,
2013-01-05 16:09:00,23.8,17.7,29.86,ENE,66,0.0,0.0,77,0.00,,,0.00,VWS V14.01,2013-01-05 22:09:00,
2013-01-05 16:10:00,23.8,17.7,29.86,ENE,59,0.0,0.0,77,0.00,,,0.00,VWS V14.01,2013-01-05 22:10:00,
2013-01-05 16:14:00,23.9,17.8,29.87,ESE,106,0.0,0.0,77,0.00,,,0.00,VWS V14.01,2013-01-05 22:14:00,
2013-01-05 16:15:00,23.9,17.8,29.87,ESE,106,0.0,0.0,77,0.00,,,0.00,VWS V14.01,2013-01-05 22:15:00,
2013-01-05 16:19:00,24.1,18.0,29.87,ESE,104,0.0,0.0,77,0.00,,,0.00,VWS V14.01,2013-01-05 22:19:00,
2013-01-05 16:20:00,24.1,18.0,29.87,ESE,106,0.0,0.0,77,0.00,,,0.00,VWS V14.01,2013-01-05 22:20:00,
2013-01-05 16:24:00,24.1,18.0,29.87,ESE,106,0.0,0.0,77,0.00,,,0.00,VWS V14.01,2013-01-05 22:24:00,
2013-01-05 16:25:00,24.1,18.0,29.87,ESE,106,0.0,0.0,77,0.00,,,0.00,VWS V14.01,2013-01-05 22:25:00,
2013-01-05 16:29:00,23.6,17.5,29.87,East,93,0.0,0.0,77,0.00,,,0.00,VWS V14.01,2013-01-05 22:29:00,
2013-01-05 16:30:00,23.6,17.5,29.87,East,88,0.0,0.0,77,0.00,,,0.00,VWS V14.01,2013-01-05 22:30:00,
2013-01-05 16:34:00,23.3,17.5,29.87,East,89,0.0,0.0,78,0.00,,,0.00,VWS V14.01,2013-01-05 22:34:00,
2013-01-05 16:35:00,23.3,17.5,29.87,East,90,0.0,0.0,78,0.00,,,0.00,VWS V14.01,2013-01-05 22:35:00,
2013-01-05 16:39:00,23.3,17.5,29.87,East,95,0.0,0.0,78,0.00,,,0.00,VWS V14.01,2013-01-05 22:39:00,
2013-01-05 16:40:00,23.3,17.5,29.87,East,99,0.0,0.0,78,0.00,,,0.00,VWS V14.01,2013-01-05 22:40:00,
2013-01-05 16:44:00,23.3,17.5,29.87,ENE,75,0.0,0.0,78,0.00,,,0.00,VWS V14.01,2013-01-05 22:44:00,
2013-01-05 16:45:00,23.3,17.5,29.87,ENE,75,0.0,0.0,78,0.00,,,0.00,VWS V14.01,2013-01-05 22:45:00,
2013-01-05 16:49:00,23.3,17.8,29.87,ENE,65,0.0,0.0,79,0.00,,,0.00,VWS V14.01,2013-01-05 22:49:00,
2013-01-05 16:50:00,23.3,17.8,29.87,ENE,66,0.0,0.0,79,0.00,,,0.00,VWS V14.01,2013-01-05 22:50:00,
2013-01-05 16:54:00,23.3,17.8,29.87,ENE,71,0.0,1.0,79,0.00,,,0.00,VWS V14.01,2013-01-05 22:54:00,
2013-01-05 16:55:00,23.3,17.8,29.87,ENE,66,0.0,0.0,79,0.00,,,0.00,VWS V14.01,2013-01-05 22:55:00,
2013-01-05 16:59:00,23.2,17.7,29.87,NNW,337,1.0,1.0,79,0.00,,,0.00,VWS V14.01,2013-01-05 22:59:00,
2013-01-05 17:00:00,23.2,17.7,29.87,NNW,342,1.0,1.0,79,0.00,,,0.00,VWS V14.01,2013-01-05 23:00:00,
2013-01-05 17:04:00,23.3,18.1,29.87,WNW,301,1.0,3.0,80,0.00,,,0.00,VWS V14.01,2013-01-05 23:04:00,
2013-01-05 17:05:00,23.3,18.1,29.87,WNW,301,2.0,3.0,80,0.00,,,0.00,VWS V14.01,2013-01-05 23:05:00,
2013-01-05 17:10:00,23.3,18.1,29.87,WNW,294,0.0,1.0,80,0.00,,,0.00,VWS V14.01,2013-01-05 23:10:00,
2013-01-05 17:15:00,23.3,18.3,29.88,WNW,292,0.0,0.0,81,0.00,,,0.00,VWS V14.01,2013-01-05 23:15:00,
2013-01-05 17:20:00,23.5,18.5,29.88,WNW,292,0.0,0.0,81,0.00,,,0.00,VWS V14.01,2013-01-05 23:20:00,
2013-01-05 17:25:00,23.5,18.5,29.88,WNW,294,0.0,0.0,81,0.00,,,0.00,VWS V14.01,2013-01-05 23:25:00,
2013-01-05 17:30:00,23.3,18.3,29.88,WNW,292,0.0,0.0,81,0.00,,,0.00,VWS V14.01,2013-01-05 23:30:00,
2013-01-05 17:35:00,23.5,18.2,29.88,WNW,292,0.0,0.0,80,0.00,,,0.00,VWS V14.01,2013-01-05 23:35:00,
2013-01-05 17:40:00,23.5,18.2,29.88,WNW,292,0.0,0.0,80,0.00,,,0.00,VWS V14.01,2013-01-05 23:40:00,
2013-01-05 17:45:00,23.5,18.2,29.88,WNW,292,0.0,0.0,80,0.00,,,0.00,VWS V14.01,2013-01-05 23:45:00,
2013-01-05 17:50:00,23.5,18.5,29.88,WNW,292,0.0,0.0,81,0.00,,,0.00,VWS V14.01,2013-01-05 23:50:00,
2013-01-05 17:55:00,23.3,18.1,29.88,WNW,292,0.0,0.0,80,0.00,,,0.00,VWS V14.01,2013-01-05 23:55:00,
2013-01-05 18:00:00,23.5,18.2,29.89,WNW,292,0.0,0.0,80,0.00,,,0.00,VWS V14.01,2013-01-06 00:00:00,
2013-01-05 18:05:00,23.5,18.5,29.89,WNW,294,0.0,0.0,81,0.00,,,0.00,VWS V14.01,2013-01-06 00:05:00,
2013-01-05 18:10:00,23.5,18.5,29.89,WNW,285,5.0,5.0,81,0.00,,,0.00,VWS V14.01,2013-01-06 00:10:00,
2013-01-05 18:15:00,23.5,18.2,29.89,West,275,0.0,1.0,80,0.00,,,0.00,VWS V14.01,2013-01-06 00:15:00,
2013-01-05 18:20:00,23.5,18.5,29.89,West,280,0.0,5.0,81,0.00,,,0.00,VWS V14.01,2013-01-06 00:20:00,
2013-01-05 18:25:00,23.6,18.4,29.89,West,275,0.0,4.0,80,0.00,,,0.00,VWS V14.01,2013-01-06 00:25:00,
2013-01-05 18:30:00,23.8,18.5,29.90,West,281,4.0,5.0,80,0.00,,,0.00,VWS V14.01,2013-01-06 00:30:00,
2013-01-05 18:35:00,23.9,18.6,29.90,West,280,4.0,5.0,80,0.00,,,0.00,VWS V14.01,2013-01-06 00:35:00,
2013-01-05 18:40:00,24.1,18.8,29.90,West,280,4.0,4.0,80,0.00,,,0.00,VWS V14.01,2013-01-06 00:40:00,
2013-01-05 18:45:00,24.7,19.4,29.90,WNW,284,0.0,0.0,80,0.00,,,0.00,VWS V14.01,2013-01-06 00:45:00,
2013-01-05 18:50:00,25.0,19.4,29.90,West,277,0.0,1.0,79,0.00,,,0.00,VWS V14.01,2013-01-06 00:50:00,
2013-01-05 18:55:00,25.1,19.8,29.90,West,278,0.0,5.0,80,0.00,,,0.00,VWS V14.01,2013-01-06 00:55:00,
2013-01-05 19:00:00,26.1,20.8,29.90,North,356,2.0,7.0,80,0.00,,,0.00,VWS V14.01,2013-01-06 01:00:00,
2013-01-05 19:05:00,26.4,20.2,29.90,NNW,346,0.0,1.0,77,0.00,,,0.00,VWS V14.01,2013-01-06 01:05:00,
2013-01-05 19:10:00,27.3,21.7,29.90,ENE,64,9.0,9.0,79,0.00,,,0.00,VWS V14.01,2013-01-06 01:10:00,
2013-01-05 19:11:00,27.8,21.2,29.90,ENE,65,10.0,11.0,76,0.00,,,0.00,VWS V14.01,2013-01-06 01:11:00,
2013-01-05 19:15:00,28.4,21.5,29.89,ENE,68,6.0,11.0,75,0.00,,,0.00,VWS V14.01,2013-01-06 01:15:00,
2013-01-05 19:16:00,28.5,21.6,29.89,ENE,64,6.0,8.0,75,0.00,,,0.00,VWS V14.01,2013-01-06 01:16:00,
2013-01-05 19:21:00,28.7,22.1,29.89,East,80,8.0,8.0,76,0.00,,,0.00,VWS V14.01,2013-01-06 01:21:00,
2013-01-05 19:25:00,28.7,21.5,29.89,ENE,72,12.0,13.0,74,0.00,,,0.00,VWS V14.01,2013-01-06 01:25:00,
2013-01-05 19:26:00,28.7,21.8,29.89,NE,49,12.0,13.0,75,0.00,,,0.00,VWS V14.01,2013-01-06 01:26:00,
2013-01-05 19:30:00,28.8,21.6,29.89,East,83,11.0,16.0,74,0.00,,,0.00,VWS V14.01,2013-01-06 01:30:00,
2013-01-05 19:31:00,28.8,21.6,29.89,ENE,76,11.0,14.0,74,0.00,,,0.00,VWS V14.01,2013-01-06 01:31:00,
2013-01-05 19:35:00,28.8,21.6,29.89,ENE,76,12.0,17.0,74,0.00,,,0.00,VWS V14.01,2013-01-06 01:35:00,
2013-01-05 19:36:00,28.8,21.6,29.89,ENE,76,13.0,18.0,74,0.00,,,0.00,VWS V14.01,2013-01-06 01:36:00,
2013-01-05 19:40:00,28.7,21.2,29.89,North,357,10.0,18.0,73,0.00,,,0.00,VWS V14.01,2013-01-06 01:40:00,
2013-01-05 19:41:00,28.7,21.5,29.89,North,356,11.0,14.0,74,0.00,,,0.00,VWS V14.01,2013-01-06 01:41:00,
2013-01-05 19:45:00,28.5,21.3,29.90,North,359,8.0,14.0,74,0.00,,,0.00,VWS V14.01,2013-01-06 01:45:00,
2013-01-05 19:46:00,28.4,20.9,29.90,ENE,78,5.0,11.0,73,0.00,,,0.00,VWS V14.01,2013-01-06 01:46:00,
2013-01-05 19:50:00,28.4,20.5,29.90,North,359,4.0,11.0,72,0.00,,,0.00,VWS V14.01,2013-01-06 01:50:00,
2013-01-05 19:51:00,28.4,20.5,29.90,North,359,11.0,12.0,72,0.00,,,0.00,VWS V14.01,2013-01-06 01:51:00,
2013-01-05 19:55:00,28.2,20.4,29.90,North,349,4.0,12.0,72,0.00,,,0.00,VWS V14.01,2013-01-06 01:55:00,
2013-01-05 19:56:00,28.2,20.4,29.90,NNW,347,5.0,11.0,72,0.00,,,0.00,VWS V14.01,2013-01-06 01:56:00,
2013-01-05 20:00:00,28.1,20.2,29.90,North,354,2.0,11.0,72,0.00,,,0.00,VWS V14.01,2013-01-06 02:00:00,
2013-01-05 20:01:00,28.2,20.7,29.90,North,356,6.0,7.0,73,0.00,,,0.00,VWS V14.01,2013-01-06 02:01:00,
2013-01-05 20:05:00,28.4,21.2,29.90,East,79,8.0,13.0,74,0.00,,,0.00,VWS V14.01,2013-01-06 02:05:00,
2013-01-05 20:06:00,28.4,20.9,29.90,North,356,11.0,11.0,73,0.00,,,0.00,VWS V14.01,2013-01-06 02:06:00,
2013-01-05 20:10:00,28.5,21.3,29.90,North,357,11.0,13.0,74,0.00,,,0.00,VWS V14.01,2013-01-06 02:10:00,
2013-01-05 20:11:00,28.4,20.9,29.90,East,79,12.0,16.0,73,0.00,,,0.00,VWS V14.01,2013-01-06 02:11:00,
2013-01-05 20:15:00,28.4,20.9,29.90,East,82,12.0,16.0,73,0.00,,,0.00,VWS V14.01,2013-01-06 02:15:00,
2013-01-05 20:16:00,28.4,20.9,29.90,North,357,14.0,17.0,73,0.00,,,0.00,VWS V14.01,2013-01-06 02:16:00,
2013-01-05 20:20:00,28.4,20.9,29.90,East,80,12.0,17.0,73,0.00,,,0.00,VWS V14.01,2013-01-06 02:20:00,
2013-01-05 20:21:00,28.4,21.2,29.90,East,85,13.0,13.0,74,0.00,,,0.00,VWS V14.01,2013-01-06 02:21:00,
2013-01-05 20:25:00,28.4,20.9,29.90,North,353,17.0,17.0,73,0.00,,,0.00,VWS V14.01,2013-01-06 02:25:00,
2013-01-05 20:26:00,28.2,20.7,29.90,North,357,7.0,17.0,73,0.00,,,0.00,VWS V14.01,2013-01-06 02:26:00,
2013-01-05 20:30:00,28.1,20.6,29.90,North,357,4.0,17.0,73,0.00,,,0.00,VWS V14.01,2013-01-06 02:30:00,
2013-01-05 20:31:00,27.9,20.4,29.90,North,359,6.0,11.0,73,0.00,,,0.00,VWS V14.01,2013-01-06 02:31:00,
2013-01-05 20:35:00,27.8,20.3,29.90,NNW,346,4.0,13.0,73,0.00,,,0.00,VWS V14.01,2013-01-06 02:35:00,
2013-01-05 20:36:00,27.6,20.1,29.90,NNW,340,5.0,13.0,73,0.00,,,0.00,VWS V14.01,2013-01-06 02:36:00,
2013-01-05 20:40:00,27.5,20.3,29.90,NNW,342,10.0,13.0,74,0.00,,,0.00,VWS V14.01,2013-01-06 02:40:00,
2013-01-05 20:41:00,27.3,20.1,29.90,North,357,5.0,10.0,74,0.00,,,0.00,VWS V14.01,2013-01-06 02:41:00,
2013-01-05 20:45:00,27.3,20.1,29.91,East,85,6.0,10.0,74,0.00,,,0.00,VWS V14.01,2013-01-06 02:45:00,
2013-01-05 20:46:00,27.2,20.3,29.91,East,79,6.0,11.0,75,0.00,,,0.00,VWS V14.01,2013-01-06 02:46:00,
2013-01-05 20:50:00,27.0,20.1,29.91,North,354,7.0,11.0,75,0.00,,,0.00,VWS V14.01,2013-01-06 02:50:00,
2013-01-05 20:51:00,26.9,20.0,29.91,NNW,347,6.0,12.0,75,0.00,,,0.00,VWS V14.01,2013-01-06 02:51:00,
2013-01-05 20:55:00,26.9,20.4,29.91,NNW,342,6.0,12.0,76,0.00,,,0.00,VWS V14.01,2013-01-06 02:55:00,
2013-01-05 20:56:00,26.7,20.2,29.91,East,83,6.0,10.0,76,0.00,,,0.00,VWS V14.01,2013-01-06 02:56:00,
2013-01-05 21:00:00,26.7,20.2,29.90,North,357,7.0,10.0,76,0.00,,,0.00,VWS V14.01,2013-01-06 03:00:00,
2013-01-05 21:01:00,26.7,20.2,29.90,North,357,5.0,12.0,76,0.00,,,0.00,VWS V14.01,2013-01-06 03:01:00,
2013-01-05 21:05:00,26.7,20.2,29.90,East,93,7.0,12.0,76,0.00,,,0.00,VWS V14.01,2013-01-06 03:05:00,
2013-01-05 21:07:00,26.7,20.2,29.90,North,354,7.0,11.0,76,0.00,,,0.00,VWS V14.01,2013-01-06 03:07:00,
2013-01-05 21:10:00,26.7,20.5,29.90,North,352,10.0,12.0,77,0.00,,,0.00,VWS V14.01,2013-01-06 03:10:00,
2013-01-05 21:12:00,26.7,20.5,29.90,NNW,344,7.0,14.0,77,0.00,,,0.00,VWS V14.01,2013-01-06 03:12:00,
2013-01-05 21:15:00,26.6,20.1,29.90,North,357,7.0,14.0,76,0.00,,,0.00,VWS V14.01,2013-01-06 03:15:00,
2013-01-05 21:17:00,26.4,19.9,29.90,NNW,347,6.0,12.0,76,0.00,,,0.00,VWS V14.01,2013-01-06 03:17:00,
2013-01-05 21:20:00,26.4,19.9,29.90,East,80,6.0,12.0,76,0.00,,,0.00,VWS V14.01,2013-01-06 03:20:00,
2013-01-05 21:22:00,26.3,19.8,29.90,NNW,336,8.0,12.0,76,0.00,,,0.00,VWS V14.01,2013-01-06 03:22:00,
2013-01-05 21:27:00,26.3,19.8,29.90,North,349,7.0,11.0,76,0.00,,,0.00,VWS V14.01,2013-01-06 03:27:00,
2013-01-05 21:30:00,26.1,19.9,29.91,NNW,342,8.0,14.0,77,0.00,,,0.00,VWS V14.01,2013-01-06 03:30:00,
2013-01-05 21:32:00,26.1,19.6,29.91,NNW,347,5.0,12.0,76,0.00,,,0.00,VWS V14.01,2013-01-06 03:32:00,
2013-01-05 21:35:00,26.0,19.5,29.91,NNW,330,8.0,12.0,76,0.00,,,0.00,VWS V14.01,2013-01-06 03:35:00,
2013-01-05 21:37:00,25.8,19.6,29.91,East,83,8.0,16.0,77,0.00,,,0.00,VWS V14.01,2013-01-06 03:37:00,
2013-01-05 21:40:00,25.8,19.6,29.91,NNW,342,6.0,16.0,77,0.00,,,0.00,VWS V14.01,2013-01-06 03:40:00,
2013-01-05 21:42:00,25.7,19.5,29.91,North,350,6.0,16.0,77,0.00,,,0.00,VWS V14.01,2013-01-06 03:42:00,
2013-01-05 21:45:00,25.7,19.5,29.92,North,357,13.0,16.0,77,0.00,,,0.00,VWS V14.01,2013-01-06 03:45:00,
2013-01-05 21:47:00,25.6,19.4,29.92,NNW,344,12.0,14.0,77,0.00,,,0.00,VWS V14.01,2013-01-06 03:47:00,
2013-01-05 21:50:00,25.6,19.4,29.92,NNW,344,11.0,14.0,77,0.00,,,0.00,VWS V14.01,2013-01-06 03:50:00,
2013-01-05 21:52:00,25.3,19.1,29.92,NNW,346,3.0,13.0,77,0.00,,,0.00,VWS V14.01,2013-01-06 03:52:00,
2013-01-05 21:55:00,25.1,19.2,29.92,NNW,347,10.0,16.0,78,0.00,,,0.00,VWS V14.01,2013-01-06 03:55:00,
2013-01-05 21:57:00,25.1,19.2,29.92,North,353,11.0,16.0,78,0.00,,,0.00,VWS V14.01,2013-01-06 03:57:00,
2013-01-05 22:00:00,25.0,19.1,29.93,NNW,347,7.0,17.0,78,0.00,,,0.00,VWS V14.01,2013-01-06 04:00:00,
2013-01-05 22:02:00,25.0,19.7,29.93,East,89,13.0,16.0,80,0.00,,,0.00,VWS V14.01,2013-01-06 04:02:00,
2013-01-05 22:05:00,24.8,19.5,29.93,North,357,5.0,16.0,80,0.00,,,0.00,VWS V14.01,2013-01-06 04:05:00,
2013-01-05 22:07:00,24.7,19.1,29.93,NNW,343,11.0,18.0,79,0.00,,,0.00,VWS V14.01,2013-01-06 04:07:00,
2013-01-05 22:10:00,24.5,18.9,29.93,NNW,347,14.0,18.0,79,0.00,,,0.00,VWS V14.01,2013-01-06 04:10:00,
2013-01-05 22:12:00,24.4,19.1,29.93,North,354,12.0,16.0,80,0.00,,,0.00,VWS V14.01,2013-01-06 04:12:00,
2013-01-05 22:15:00,24.2,18.9,29.93,North,357,8.0,16.0,80,0.00,,,0.00,VWS V14.01,2013-01-06 04:15:00,
2013-01-05 22:17:00,24.1,18.8,29.93,NNW,339,6.0,13.0,80,0.00,,,0.00,VWS V14.01,2013-01-06 04:17:00,
2013-01-05 22:20:00,23.9,18.6,29.93,NNW,337,7.0,14.0,80,0.00,,,0.00,VWS V14.01,2013-01-06 04:20:00,
2013-01-05 22:22:00,23.9,18.6,29.93,North,357,7.0,14.0,80,0.00,,,0.00,VWS V14.01,2013-01-06 04:22:00,
2013-01-05 22:25:00,23.8,18.5,29.93,North,352,7.0,14.0,80,0.00,,,0.00,VWS V14.01,2013-01-06 04:25:00,
2013-01-05 22:27:00,23.8,18.5,29.93,North,350,7.0,18.0,80,0.00,,,0.00,VWS V14.01,2013-01-06 04:27:00,
2013-01-05 22:30:00,23.6,18.4,29.94,North,354,14.0,18.0,80,0.00,,,0.00,VWS V14.01,2013-01-06 04:30:00,
2013-01-05 22:32:00,23.5,18.2,29.94,ENE,59,12.0,16.0,80,0.00,,,0.00,VWS V14.01,2013-01-06 04:32:00,
2013-01-05 22:35:00,23.5,18.2,29.94,NNW,335,11.0,19.0,80,0.00,,,0.00,VWS V14.01,2013-01-06 04:35:00,
2013-01-05 22:38:00,23.3,18.1,29.94,North,349,10.0,16.0,80,0.00,,,0.00,VWS V14.01,2013-01-06 04:38:00,
2013-01-05 22:40:00,23.3,18.1,29.94,North,350,5.0,16.0,80,0.00,,,0.00,VWS V14.01,2013-01-06 04:40:00,
2013-01-05 22:43:00,23.3,18.1,29.94,NNW,340,4.0,13.0,80,0.00,,,0.00,VWS V14.01,2013-01-06 04:43:00,
2013-01-05 22:45:00,23.2,18.2,29.94,North,354,8.0,13.0,81,0.00,,,0.00,VWS V14.01,2013-01-06 04:45:00,
2013-01-05 22:48:00,23.2,18.2,29.94,NNW,336,6.0,13.0,81,0.00,,,0.00,VWS V14.01,2013-01-06 04:48:00,
2013-01-05 22:50:00,23.2,18.2,29.94,NNW,329,8.0,14.0,81,0.00,,,0.00,VWS V14.01,2013-01-06 04:50:00,
2013-01-05 22:53:00,23.0,18.0,29.94,North,0,8.0,16.0,81,0.00,,,0.00,VWS V14.01,2013-01-06 04:53:00,
2013-01-05 22:55:00,22.9,18.0,29.94,NNW,344,13.0,16.0,81,0.00,,,0.00,VWS V14.01,2013-01-06 04:55:00,
2013-01-05 22:58:00,22.7,17.8,29.94,NNW,337,7.0,16.0,81,0.00,,,0.00,VWS V14.01,2013-01-06 04:58:00,
2013-01-05 23:00:00,22.7,18.0,29.95,NNW,347,6.0,14.0,82,0.00,,,0.00,VWS V14.01,2013-01-06 05:00:00,
2013-01-05 23:02:00,22.7,18.0,29.95,NNW,329,10.0,17.0,82,0.00,,,0.00,VWS V14.01,2013-01-06 05:02:00,
2013-01-05 23:05:00,22.7,18.0,29.95,NW,316,14.0,20.0,82,0.00,,,0.00,VWS V14.01,2013-01-06 05:05:00,
2013-01-05 23:08:00,22.5,17.9,29.95,NNW,340,7.0,20.0,82,0.00,,,0.00,VWS V14.01,2013-01-06 05:08:00,
2013-01-05 23:10:00,22.5,17.9,29.95,North,354,10.0,20.0,82,0.00,,,0.00,VWS V14.01,2013-01-06 05:10:00,
2013-01-05 23:13:00,22.4,17.8,29.95,NW,325,7.0,19.0,82,0.00,,,0.00,VWS V14.01,2013-01-06 05:13:00,
2013-01-05 23:15:00,22.4,17.8,29.95,NNW,346,11.0,19.0,82,0.00,,,0.00,VWS V14.01,2013-01-06 05:15:00,
2013-01-05 23:18:00,22.4,18.0,29.95,North,0,6.0,16.0,83,0.00,,,0.00,VWS V14.01,2013-01-06 05:18:00,
2013-01-05 23:20:00,22.2,17.8,29.95,NNW,337,13.0,17.0,83,0.00,,,0.00,VWS V14.01,2013-01-06 05:20:00,
2013-01-05 23:23:00,22.1,17.7,29.95,NW,325,13.0,14.0,83,0.00,,,0.00,VWS V14.01,2013-01-06 05:23:00,
2013-01-05 23:25:00,22.1,17.7,29.95,NNW,328,11.0,14.0,83,0.00,,,0.00,VWS V14.01,2013-01-06 05:25:00,
2013-01-05 23:28:00,21.9,17.5,29.95,North,357,6.0,17.0,83,0.00,,,0.00,VWS V14.01,2013-01-06 05:28:00,
2013-01-05 23:30:00,21.9,17.5,29.95,North,356,8.0,17.0,83,0.00,,,0.00,VWS V14.01,2013-01-06 05:30:00,
2013-01-05 23:33:00,21.8,17.4,29.95,NW,320,13.0,14.0,83,0.00,,,0.00,VWS V14.01,2013-01-06 05:33:00,
2013-01-05 23:35:00,21.8,17.7,29.95,NW,326,7.0,14.0,84,0.00,,,0.00,VWS V14.01,2013-01-06 05:35:00,
2013-01-05 23:38:00,21.6,17.5,29.95,NNW,347,7.0,12.0,84,0.00,,,0.00,VWS V14.01,2013-01-06 05:38:00,
2013-01-05 23:40:00,21.6,17.5,29.95,NNW,328,13.0,13.0,84,0.00,,,0.00,VWS V14.01,2013-01-06 05:40:00,
2013-01-05 23:43:00,21.4,17.3,29.96,NNW,329,14.0,16.0,84,0.00,,,0.00,VWS V14.01,2013-01-06 05:43:00,
2013-01-05 23:45:00,21.4,17.3,29.96,NNE,14,6.0,16.0,84,0.00,,,0.00,VWS V14.01,2013-01-06 05:45:00,
2013-01-05 23:48:00,21.4,17.3,29.96,North,352,7.0,16.0,84,0.00,,,0.00,VWS V14.01,2013-01-06 05:48:00,
2013-01-05 23:50:00,21.4,17.3,29.96,NNW,328,17.0,17.0,84,0.00,,,0.00,VWS V14.01,2013-01-06 05:50:00,
2013-01-05 23:53:00,21.4,17.3,29.96,NNW,332,10.0,17.0,84,0.00,,,0.00,VWS V14.01,2013-01-06 05:53:00,
2013-01-05 23:55:00,21.4,17.3,29.96,NNW,332,10.0,17.0,84,0.00,,,0.00,VWS V14.01,2013-01-06 05:55:00,
2013-01-05 23:58:00,21.3,17.2,29.96,North,4,7.0,15.0,84,0.00,,,0.00,VWS V14.01,2013-01-06 05:58:00,